Location: Newark
(41.6478°N, 9.0078°E)
Time: 15:15:16
(UTC+00:00)

UWE-3 - Pass Details

Date: 28 January 2020
Orbit: 585 x 683 km, 97.6° (Epoch: 17 February)

Event Time Altitude Azimuth Distance (km) Brightness Sun altitude
Rises 04:34:22 0° 18° (NNE) 2,886 ? -23.6°
Reaches altitude 10° 04:36:37 10° 25° (NNE) 1,991 ? -23.2°
Maximum altitude 04:40:47 46° 99° (E) 846 ? -22.4°
Drops below altitude 10° 04:45:04 10° 173° (S) 2,035 ? -21.6°
Sets 04:47:22 0° 179° (S) 2,956 ? -21.2°
